When you browse on this site, cookies collect data to enhance your experience and personalize the content and advertising you see.
Visit our Privacy Policy to learn more. By continuing to use the site, you agree to this use of cookies and data.
  • Em Portugal
  • Lista de países
  • Para 7 dias
  • Temperatura da água
  • Mapas de satélite
  • Mapa do tempo
  • Widgets de tempo
  • user-avatar
    Iniciar Sessão

    Previsão horária em Babeevo

    Hoje, 19 Junho, Quarta-feira

    Tempo Temperatura Precipitação Vento Pressão Humidade
    00:00 +16°C° 0 mm 2 m/s 748 mmHg 92%
    01:00 +16°C° 0 mm 2 m/s 748 mmHg 93%
    02:00 +15°C° 0 mm 2 m/s 748 mmHg 94%
    03:00 +15°C° 0 mm 2 m/s 748 mmHg 95%
    04:00 +15°C° 0 mm 2 m/s 748 mmHg 93%
    05:00 +16°C° 0 mm 2 m/s 748 mmHg 91%
    06:00 +17°C° 0 mm 3 m/s 749 mmHg 90%
    07:00 +19°C° 0 mm 3 m/s 749 mmHg 82%
    08:00 +20°C° 0 mm 3 m/s 749 mmHg 74%
    09:00 +22°C° 0 mm 4 m/s 749 mmHg 67%
    10:00 +23°C° 0 mm 4 m/s 749 mmHg 62%
    11:00 +25°C° 0 mm 4 m/s 749 mmHg 56%
    12:00 +27°C° 0 mm 4 m/s 749 mmHg 51%
    13:00 +27°C° 0 mm 4 m/s 749 mmHg 50%
    14:00 +27°C° 0 mm 4 m/s 749 mmHg 49%
    15:00 +28°C° 0 mm 4 m/s 749 mmHg 49%
    16:00 +27°C° 0.1 mm 3 m/s 749 mmHg 53%
    17:00 +27°C° 0.1 mm 3 m/s 749 mmHg 57%
    18:00 +26°C° 0.1 mm 2 m/s 749 mmHg 61%
    19:00 +24°C° 0 mm 2 m/s 750 mmHg 66%
    20:00 +21°C° 0 mm 2 m/s 750 mmHg 71%
    21:00 +20°C° 0 mm 1 m/s 750 mmHg 76%
    22:00 +19°C° 0 mm 1 m/s 750 mmHg 78%
    23:00 +19°C° 0 mm 1 m/s 750 mmHg 80%

    Amanhã, 20 Junho, Quinta-feira

    Tempo Temperatura Precipitação Vento Pressão Humidade
    00:00 +18°C° 0 mm 1 m/s 750 mmHg 81%
    01:00 +18°C° 0 mm 1 m/s 750 mmHg 84%
    02:00 +16°C° 0 mm 1 m/s 751 mmHg 87%
    03:00 +16°C° 0 mm 1 m/s 751 mmHg 90%
    04:00 +18°C° 0 mm 1 m/s 751 mmHg 87%
    05:00 +19°C° 0 mm 1 m/s 751 mmHg 84%
    06:00 +19°C° 0 mm 1 m/s 752 mmHg 80%
    07:00 +20°C° 0 mm 2 m/s 752 mmHg 73%
    08:00 +23°C° 0 mm 2 m/s 752 mmHg 66%
    09:00 +25°C° 0 mm 2 m/s 752 mmHg 60%
    10:00 +26°C° 0 mm 2 m/s 752 mmHg 54%
    11:00 +27°C° 0 mm 2 m/s 752 mmHg 49%
    12:00 +28°C° 0 mm 2 m/s 752 mmHg 43%
    13:00 +29°C° 0 mm 2 m/s 752 mmHg 42%
    14:00 +29°C° 0 mm 2 m/s 752 mmHg 41%
    15:00 +29°C° 0 mm 2 m/s 752 mmHg 40%
    16:00 +28°C° 0 mm 2 m/s 752 mmHg 46%
    17:00 +28°C° 0 mm 2 m/s 752 mmHg 52%
    18:00 +27°C° 0 mm 2 m/s 752 mmHg 58%
    19:00 +25°C° 0 mm 1 m/s 752 mmHg 62%
    20:00 +23°C° 0 mm 1 m/s 752 mmHg 66%
    21:00 +21°C° 0 mm 1 m/s 752 mmHg 70%
    22:00 +20°C° 0 mm 1 m/s 752 mmHg 73%
    23:00 +20°C° 0 mm 1 m/s 752 mmHg 75%

    Depois de amanhã, 21 Junho, Sexta-feira

    Tempo Temperatura Precipitação Vento Pressão Humidade
    00:00 +19°C° 0 mm 1 m/s 753 mmHg 78%
    01:00 +18°C° 0 mm 1 m/s 753 mmHg 81%
    02:00 +18°C° 0 mm 1 m/s 753 mmHg 85%
    03:00 +16°C° 0 mm 1 m/s 753 mmHg 88%
    04:00 +18°C° 0 mm 1 m/s 753 mmHg 85%
    05:00 +19°C° 0 mm 1 m/s 753 mmHg 82%
    06:00 +20°C° 0 mm 1 m/s 754 mmHg 80%
    07:00 +22°C° 0 mm 1 m/s 754 mmHg 72%
    08:00 +24°C° 0 mm 1 m/s 754 mmHg 64%
    09:00 +26°C° 0 mm 1 m/s 754 mmHg 56%
    10:00 +27°C° 0 mm 1 m/s 754 mmHg 51%
    11:00 +28°C° 0 mm 1 m/s 754 mmHg 46%
    12:00 +29°C° 0 mm 1 m/s 754 mmHg 41%
    13:00 +29°C° 0 mm 2 m/s 754 mmHg 42%
    14:00 +29°C° 0 mm 2 m/s 754 mmHg 43%
    15:00 +29°C° 0 mm 2 m/s 753 mmHg 44%
    16:00 +28°C° 0 mm 2 m/s 753 mmHg 49%
    17:00 +28°C° 0 mm 1 m/s 753 mmHg 54%
    18:00 +27°C° 0 mm 1 m/s 753 mmHg 59%
    19:00 +25°C° 0 mm 1 m/s 753 mmHg 63%
    20:00 +21°C° 0 mm 0 m/s 753 mmHg 68%
    21:00 +19°C° 0 mm 0 m/s 753 mmHg 72%
    22:00 +19°C° 0 mm 0 m/s 753 mmHg 73%
    23:00 +18°C° 0 mm 0 m/s 753 mmHg 74%

    22 Junho, Sábado

    Tempo Temperatura Precipitação Vento Pressão Humidade
    00:00 +18°C° 0 mm 0 m/s 754 mmHg 75%
    01:00 +20°C° 0 mm 1 m/s 754 mmHg 75%
    02:00 +19°C° 0 mm 1 m/s 754 mmHg 76%
    03:00 +19°C° 0 mm 1 m/s 754 mmHg 76%
    04:00 +20°C° 0 mm 1 m/s 754 mmHg 76%
    05:00 +21°C° 0 mm 1 m/s 754 mmHg 75%
    06:00 +22°C° 0 mm 1 m/s 754 mmHg 75%
    07:00 +23°C° 0 mm 1 m/s 754 mmHg 69%
    08:00 +25°C° 0 mm 2 m/s 754 mmHg 63%
    09:00 +27°C° 0 mm 2 m/s 754 mmHg 57%
    10:00 +28°C° 0 mm 3 m/s 754 mmHg 54%
    11:00 +28°C° 0 mm 3 m/s 754 mmHg 52%
    12:00 +29°C° 0 mm 3 m/s 754 mmHg 50%
    13:00 +29°C° 0 mm 3 m/s 754 mmHg 47%
    14:00 +29°C° 0 mm 3 m/s 754 mmHg 48%
    15:00 +30°C° 0 mm 3 m/s 753 mmHg 49%
    16:00 +29°C° 0 mm 3 m/s 753 mmHg 53%
    17:00 +29°C° 0 mm 2 m/s 753 mmHg 57%
    18:00 +28°C° 0 mm 2 m/s 753 mmHg 61%
    19:00 +26°C° 0 mm 2 m/s 753 mmHg 66%
    20:00 +24°C° 0 mm 2 m/s 753 mmHg 71%
    21:00 +21°C° 0 mm 2 m/s 753 mmHg 77%
    22:00 +21°C° 0 mm 2 m/s 753 mmHg 78%
    23:00 +20°C° 0 mm 2 m/s 753 mmHg 80%

    23 Junho, Domingo

    Tempo Temperatura Precipitação Vento Pressão Humidade
    00:00 +20°C° 0 mm 2 m/s 753 mmHg 81%
    01:00 +19°C° 0 mm 2 m/s 753 mmHg 82%
    02:00 +19°C° 0 mm 2 m/s 753 mmHg 83%
    03:00 +18°C° 0 mm 2 m/s 753 mmHg 83%
    04:00 +19°C° 0 mm 2 m/s 753 mmHg 81%
    05:00 +20°C° 0 mm 2 m/s 753 mmHg 79%
    06:00 +21°C° 0 mm 3 m/s 754 mmHg 77%
    07:00 +24°C° 0 mm 3 m/s 754 mmHg 71%
    08:00 +26°C° 0 mm 3 m/s 754 mmHg 66%
    09:00 +27°C° 0 mm 3 m/s 754 mmHg 61%
    10:00 +28°C° 0 mm 3 m/s 753 mmHg 58%
    11:00 +29°C° 0 mm 4 m/s 753 mmHg 56%
    12:00 +30°C° 0 mm 4 m/s 753 mmHg 53%
    13:00 +32°C° 0 mm 4 m/s 753 mmHg 53%
    14:00 +32°C° 0 mm 4 m/s 753 mmHg 52%
    15:00 +32°C° 0 mm 4 m/s 753 mmHg 52%
    16:00 +30°C° 0.1 mm 3 m/s 753 mmHg 57%
    17:00 +30°C° 0.1 mm 3 m/s 753 mmHg 63%
    18:00 +29°C° 0.1 mm 3 m/s 752 mmHg 68%
    19:00 +27°C° 0 mm 2 m/s 753 mmHg 74%
    20:00 +25°C° 0 mm 2 m/s 753 mmHg 81%
    21:00 +24°C° 0 mm 1 m/s 753 mmHg 87%
    22:00 +23°C° 0 mm 1 m/s 753 mmHg 89%
    23:00 +22°C° 0 mm 1 m/s 753 mmHg 91%

    24 Junho, Segunda-feira

    Tempo Temperatura Precipitação Vento Pressão Humidade
    00:00 +22°C° 0 mm 1 m/s 753 mmHg 93%
    01:00 +21°C° 0 mm 1 m/s 753 mmHg 94%
    02:00 +21°C° 0 mm 1 m/s 753 mmHg 94%
    03:00 +21°C° 0 mm 1 m/s 753 mmHg 94%
    04:00 +22°C° 0 mm 1 m/s 753 mmHg 91%
    05:00 +23°C° 0 mm 1 m/s 753 mmHg 88%
    06:00 +23°C° 0 mm 1 m/s 753 mmHg 85%
    07:00 +25°C° 0.1 mm 1 m/s 753 mmHg 79%
    08:00 +26°C° 0.1 mm 1 m/s 753 mmHg 73%
    09:00 +28°C° 0.1 mm 2 m/s 753 mmHg 67%
    10:00 +29°C° 0.4 mm 2 m/s 753 mmHg 65%
    11:00 +29°C° 0.4 mm 2 m/s 753 mmHg 62%
    12:00 +30°C° 0.4 mm 2 m/s 753 mmHg 60%
    13:00 +30°C° 0.3 mm 2 m/s 753 mmHg 58%
    14:00 +30°C° 0.3 mm 2 m/s 752 mmHg 57%
    15:00 +30°C° 0.3 mm 2 m/s 752 mmHg 55%
    16:00 +30°C° 0.2 mm 2 m/s 752 mmHg 57%
    17:00 +29°C° 0.2 mm 2 m/s 752 mmHg 59%
    18:00 +29°C° 0.2 mm 2 m/s 751 mmHg 62%
    19:00 +27°C° 0 mm 1 m/s 751 mmHg 66%
    20:00 +25°C° 0 mm 1 m/s 751 mmHg 71%
    21:00 +24°C° 0 mm 1 m/s 751 mmHg 76%
    22:00 +23°C° 0 mm 1 m/s 751 mmHg 76%
    23:00 +23°C° 0 mm 1 m/s 751 mmHg 77%
    Mostrar mais